Time,TemperatureF,DewpointF,PressureIn,WindDirection,WindDirectionDegrees,WindSpeedMPH,WindSpeedGustMPH,Humidity,HourlyPrecipIn,Conditions,Clouds,dailyrainin,SoftwareType,DateUTC
2013-07-11 00:02:00,71.4,68.3,29.86,NNE,23,0.0,0.0,90,0.00,,,0.00,WUHU216HW,2013-07-11 04:02:00,
2013-07-11 00:07:00,71.2,68.1,29.86,NNE,23,0.0,0.0,90,0.00,,,0.00,WUHU216HW,2013-07-11 04:07:00,
2013-07-11 00:12:00,71.2,68.4,29.85,NNE,23,0.0,0.0,91,0.00,,,0.00,WUHU216HW,2013-07-11 04:12:00,
2013-07-11 00:17:00,71.2,68.4,29.85,NNE,23,0.0,0.0,91,0.00,,,0.00,WUHU216HW,2013-07-11 04:17:00,
2013-07-11 00:22:00,71.0,68.3,29.85,NNE,23,0.0,0.0,91,0.00,,,0.00,WUHU216HW,2013-07-11 04:22:00,
2013-07-11 00:27:00,70.8,68.1,29.85,NNE,23,0.0,0.0,91,0.00,,,0.00,WUHU216HW,2013-07-11 04:27:00,
2013-07-11 00:32:00,70.8,68.1,29.85,NNE,23,0.0,0.0,91,0.00,,,0.00,WUHU216HW,2013-07-11 04:32:00,
2013-07-11 00:37:00,70.7,67.9,29.85,NNE,23,0.0,0.0,91,0.00,,,0.00,WUHU216HW,2013-07-11 04:37:00,
2013-07-11 00:42:00,70.5,67.7,29.85,NNE,23,0.0,0.0,91,0.00,,,0.00,WUHU216HW,2013-07-11 04:42:00,
2013-07-11 00:47:00,70.5,67.7,29.85,NNE,23,0.0,0.0,91,0.00,,,0.00,WUHU216HW,2013-07-11 04:47:00,
2013-07-11 00:52:00,70.5,67.7,29.85,NNE,23,0.0,0.0,91,0.00,,,0.00,WUHU216HW,2013-07-11 04:52:00,
2013-07-11 00:57:00,70.3,67.5,29.86,NNE,23,0.0,0.0,91,0.00,,,0.00,WUHU216HW,2013-07-11 04:57:00,
2013-07-11 01:02:00,70.3,67.5,29.85,NNE,23,0.0,0.0,91,0.00,,,0.00,WUHU216HW,2013-07-11 05:02:00,
2013-07-11 01:07:00,70.3,67.5,29.86,NNE,23,0.0,0.0,91,0.00,,,0.00,WUHU216HW,2013-07-11 05:07:00,
2013-07-11 01:12:00,70.1,67.4,29.86,NNE,23,0.0,0.0,91,0.00,,,0.00,WUHU216HW,2013-07-11 05:12:00,
2013-07-11 01:17:00,70.1,67.4,29.87,NNE,23,2.4,2.4,91,0.00,,,0.00,WUHU216HW,2013-07-11 05:17:00,
2013-07-11 01:22:00,70.1,67.4,29.87,NNE,23,0.0,2.4,91,0.00,,,0.00,WUHU216HW,2013-07-11 05:22:00,
2013-07-11 01:27:00,69.9,67.2,29.87,NNE,23,0.0,0.0,91,0.00,,,0.00,WUHU216HW,2013-07-11 05:27:00,
2013-07-11 01:32:00,69.8,67.0,29.87,NNE,23,0.0,0.0,91,0.00,,,0.00,WUHU216HW,2013-07-11 05:32:00,
2013-07-11 01:37:00,69.8,67.0,29.87,NNE,23,0.0,0.0,91,0.00,,,0.00,WUHU216HW,2013-07-11 05:37:00,
2013-07-11 01:42:00,69.8,67.0,29.87,NNE,23,0.0,0.0,91,0.00,,,0.00,WUHU216HW,2013-07-11 05:42:00,
2013-07-11 01:47:00,69.9,67.2,29.87,NNE,23,0.0,0.0,91,0.00,,,0.00,WUHU216HW,2013-07-11 05:47:00,
2013-07-11 01:52:00,69.9,67.5,29.87,NNE,23,0.0,0.0,92,0.00,,,0.00,WUHU216HW,2013-07-11 05:52:00,
2013-07-11 01:57:00,69.9,67.5,29.87,NNE,23,0.0,0.0,92,0.00,,,0.00,WUHU216HW,2013-07-11 05:57:00,
2013-07-11 02:02:00,69.9,67.5,29.86,NNE,23,0.0,0.0,92,0.00,,,0.00,WUHU216HW,2013-07-11 06:02:00,
2013-07-11 02:07:00,69.9,67.5,29.86,NNE,23,0.0,0.0,92,0.00,,,0.00,WUHU216HW,2013-07-11 06:07:00,
2013-07-11 02:12:00,69.9,67.5,29.86,NNE,23,0.0,0.0,92,0.00,,,0.00,WUHU216HW,2013-07-11 06:12:00,
2013-07-11 02:17:00,69.9,67.5,29.86,NNE,23,0.0,0.0,92,0.00,,,0.00,WUHU216HW,2013-07-11 06:17:00,
2013-07-11 02:22:00,69.9,67.5,29.86,NNE,23,0.0,0.0,92,0.00,,,0.00,WUHU216HW,2013-07-11 06:22:00,
2013-07-11 02:27:00,69.9,67.5,29.87,NNE,23,0.0,0.0,92,0.00,,,0.00,WUHU216HW,2013-07-11 06:27:00,
2013-07-11 02:32:00,70.1,67.7,29.86,NW,315,0.0,0.0,92,0.00,,,0.00,WUHU216HW,2013-07-11 06:32:00,
2013-07-11 02:37:00,70.1,67.7,29.87,North,0,0.0,0.0,92,0.00,,,0.00,WUHU216HW,2013-07-11 06:37:00,
2013-07-11 02:42:00,70.3,67.8,29.86,North,0,0.0,0.0,92,0.00,,,0.00,WUHU216HW,2013-07-11 06:42:00,
2013-07-11 02:47:00,70.3,67.8,29.87,NE,45,0.0,0.0,92,0.00,,,0.00,WUHU216HW,2013-07-11 06:47:00,
2013-07-11 02:52:00,70.3,67.8,29.86,NE,45,0.0,0.0,92,0.00,,,0.00,WUHU216HW,2013-07-11 06:52:00,
2013-07-11 02:57:00,70.5,68.0,29.87,North,0,0.0,0.0,92,0.00,,,0.00,WUHU216HW,2013-07-11 06:57:00,
2013-07-11 03:02:00,70.5,68.0,29.87,North,0,0.0,0.0,92,0.00,,,0.00,WUHU216HW,2013-07-11 07:02:00,
2013-07-11 03:07:00,70.5,68.0,29.86,NW,315,0.0,0.0,92,0.00,,,0.00,WUHU216HW,2013-07-11 07:07:00,
2013-07-11 03:12:00,70.5,68.0,29.86,North,0,0.0,0.0,92,0.00,,,0.00,WUHU216HW,2013-07-11 07:12:00,
2013-07-11 03:17:00,70.5,68.0,29.86,North,0,0.0,0.0,92,0.00,,,0.00,WUHU216HW,2013-07-11 07:17:00,
2013-07-11 03:22:00,70.5,68.0,29.86,North,0,0.0,0.0,92,0.00,,,0.00,WUHU216HW,2013-07-11 07:22:00,
2013-07-11 03:27:00,70.7,68.2,29.86,NNW,338,0.0,0.0,92,0.00,,,0.00,WUHU216HW,2013-07-11 07:27:00,
2013-07-11 03:32:00,70.5,68.3,29.86,North,0,0.0,0.0,93,0.00,,,0.00,WUHU216HW,2013-07-11 07:32:00,
2013-07-11 03:37:00,70.5,68.0,29.86,North,0,0.0,0.0,92,0.00,,,0.00,WUHU216HW,2013-07-11 07:37:00,
2013-07-11 03:42:00,70.5,68.0,29.87,NNE,23,0.0,0.0,92,0.00,,,0.00,WUHU216HW,2013-07-11 07:42:00,
2013-07-11 03:47:00,70.5,68.0,29.87,NNE,23,0.0,0.0,92,0.00,,,0.00,WUHU216HW,2013-07-11 07:47:00,
2013-07-11 03:52:00,70.5,68.0,29.87,NNE,23,0.0,0.0,92,0.00,,,0.00,WUHU216HW,2013-07-11 07:52:00,
2013-07-11 03:57:00,70.3,67.8,29.87,NNE,23,0.0,0.0,92,0.00,,,0.00,WUHU216HW,2013-07-11 07:57:00,
2013-07-11 04:02:00,70.3,67.8,29.87,NNE,23,0.0,0.0,92,0.00,,,0.00,WUHU216HW,2013-07-11 08:02:00,
2013-07-11 04:07:00,70.3,67.8,29.87,NW,315,0.0,0.0,92,0.00,,,0.00,WUHU216HW,2013-07-11 08:07:00,
2013-07-11 04:12:00,70.1,67.7,29.87,North,0,0.0,0.0,92,0.00,,,0.00,WUHU216HW,2013-07-11 08:12:00,
2013-07-11 04:17:00,70.1,68.0,29.87,North,0,0.0,0.0,93,0.00,,,0.00,WUHU216HW,2013-07-11 08:17:00,
2013-07-11 04:22:00,69.9,67.5,29.87,NNE,23,0.0,0.0,92,0.00,,,0.00,WUHU216HW,2013-07-11 08:22:00,
2013-07-11 04:27:00,69.9,67.5,29.88,NNW,338,0.0,0.0,92,0.00,,,0.00,WUHU216HW,2013-07-11 08:27:00,
2013-07-11 04:32:00,69.8,67.3,29.88,North,0,0.0,0.0,92,0.00,,,0.00,WUHU216HW,2013-07-11 08:32:00,
2013-07-11 04:37:00,69.8,67.3,29.88,NNW,338,0.4,0.4,92,0.00,,,0.00,WUHU216HW,2013-07-11 08:37:00,
2013-07-11 04:42:00,69.6,67.1,29.88,NNW,338,0.0,0.4,92,0.00,,,0.00,WUHU216HW,2013-07-11 08:42:00,
2013-07-11 04:47:00,69.6,67.1,29.88,NNW,338,0.0,0.0,92,0.00,,,0.00,WUHU216HW,2013-07-11 08:47:00,
2013-07-11 04:52:00,69.4,66.6,29.88,NNW,338,0.0,0.0,91,0.00,,,0.00,WUHU216HW,2013-07-11 08:52:00,
2013-07-11 04:57:00,69.0,66.3,29.88,NNW,338,0.0,0.0,91,0.00,,,0.00,WUHU216HW,2013-07-11 08:57:00,
2013-07-11 05:02:00,69.0,66.3,29.88,NNW,338,0.0,0.0,91,0.00,,,0.00,WUHU216HW,2013-07-11 09:02:00,
2013-07-11 05:07:00,68.9,66.1,29.88,NNW,338,0.0,0.0,91,0.00,,,0.00,WUHU216HW,2013-07-11 09:07:00,
2013-07-11 05:12:00,68.7,65.9,29.88,NNW,338,0.0,0.0,91,0.00,,,0.00,WUHU216HW,2013-07-11 09:12:00,
2013-07-11 05:17:00,68.7,65.9,29.88,North,0,0.0,0.0,91,0.00,,,0.00,WUHU216HW,2013-07-11 09:17:00,
2013-07-11 05:22:00,68.7,65.9,29.88,NW,315,0.0,3.8,91,0.00,,,0.00,WUHU216HW,2013-07-11 09:22:00,
2013-07-11 05:27:00,68.5,65.7,29.88,North,0,0.0,3.8,91,0.00,,,0.00,WUHU216HW,2013-07-11 09:27:00,
2013-07-11 05:32:00,68.3,65.6,29.88,North,0,0.0,0.0,91,0.00,,,0.00,WUHU216HW,2013-07-11 09:32:00,
2013-07-11 05:37:00,68.1,65.4,29.88,North,0,0.0,0.0,91,0.00,,,0.00,WUHU216HW,2013-07-11 09:37:00,
2013-07-11 05:42:00,67.8,65.4,29.88,NNW,338,0.0,0.0,91,0.00,,,0.00,WUHU216HW,2013-07-11 09:42:00,
2013-07-11 05:47:00,67.8,65.0,29.88,NNW,338,0.0,0.0,91,0.00,,,0.00,WUHU216HW,2013-07-11 09:47:00,
2013-07-11 05:52:00,67.8,64.7,29.89,North,0,0.0,0.0,90,0.00,,,0.00,WUHU216HW,2013-07-11 09:52:00,
2013-07-11 05:57:00,67.8,64.5,29.89,NNE,23,0.0,0.0,90,0.00,,,0.00,WUHU216HW,2013-07-11 09:57:00,
2013-07-11 06:02:00,67.6,64.5,29.89,NW,315,0.0,0.0,90,0.00,,,0.00,WUHU216HW,2013-07-11 10:02:00,
2013-07-11 06:07:00,67.2,64.2,29.89,NNW,338,0.0,0.0,90,0.00,,,0.00,WUHU216HW,2013-07-11 10:07:00,
2013-07-11 06:12:00,67.2,64.2,29.90,North,0,0.0,0.0,90,0.00,,,0.00,WUHU216HW,2013-07-11 10:12:00,
2013-07-11 06:17:00,67.1,63.7,29.90,NNW,338,0.0,2.4,89,0.00,,,0.00,WUHU216HW,2013-07-11 10:17:00,
2013-07-11 06:22:00,67.1,63.7,29.90,NNW,338,0.0,2.4,89,0.00,,,0.00,WUHU216HW,2013-07-11 10:22:00,
2013-07-11 06:27:00,66.9,63.5,29.90,North,0,0.0,0.0,89,0.00,,,0.00,WUHU216HW,2013-07-11 10:27:00,
2013-07-11 06:32:00,66.7,63.3,29.90,North,0,0.0,0.0,89,0.00,,,0.00,WUHU216HW,2013-07-11 10:32:00,
2013-07-11 06:37:00,66.7,63.3,29.90,NNE,23,0.0,0.0,89,0.00,,,0.00,WUHU216HW,2013-07-11 10:37:00,
2013-07-11 06:42:00,66.3,62.9,29.91,NNE,23,0.0,0.0,89,0.00,,,0.00,WUHU216HW,2013-07-11 10:42:00,
2013-07-11 06:47:00,66.3,62.9,29.90,NNE,23,0.0,0.0,89,0.00,,,0.00,WUHU216HW,2013-07-11 10:47:00,
2013-07-11 06:52:00,66.2,62.8,29.91,NNE,23,0.0,0.0,89,0.00,,,0.00,WUHU216HW,2013-07-11 10:52:00,
2013-07-11 06:57:00,66.0,62.6,29.91,NNE,23,0.0,0.0,89,0.00,,,0.00,WUHU216HW,2013-07-11 10:57:00,
2013-07-11 07:02:00,66.0,62.6,29.91,West,270,0.0,0.0,89,0.00,,,0.00,WUHU216HW,2013-07-11 11:02:00,
2013-07-11 07:07:00,65.8,62.4,29.91,West,270,0.0,0.0,89,0.00,,,0.00,WUHU216HW,2013-07-11 11:07:00,
2013-07-11 07:12:00,65.6,62.3,29.92,NW,315,0.0,0.0,89,0.00,,,0.00,WUHU216HW,2013-07-11 11:12:00,
2013-07-11 07:17:00,65.6,62.3,29.91,NW,315,0.0,0.0,89,0.00,,,0.00,WUHU216HW,2013-07-11 11:17:00,
2013-07-11 07:22:00,65.4,62.1,29.91,North,0,0.0,0.0,89,0.00,,,0.00,WUHU216HW,2013-07-11 11:22:00,
2013-07-11 07:27:00,65.4,62.1,29.91,South,180,0.0,0.0,89,0.00,,,0.00,WUHU216HW,2013-07-11 11:27:00,
2013-07-11 07:32:00,65.4,62.1,29.91,ENE,68,0.0,0.0,89,0.00,,,0.00,WUHU216HW,2013-07-11 11:32:00,
2013-07-11 07:37:00,65.4,62.1,29.91,ENE,68,0.0,0.0,89,0.00,,,0.00,WUHU216HW,2013-07-11 11:37:00,
2013-07-11 07:42:00,65.4,61.8,29.91,NW,315,0.0,1.1,88,0.00,,,0.00,WUHU216HW,2013-07-11 11:42:00,
2013-07-11 07:47:00,65.4,61.8,29.92,NNW,338,0.0,1.1,88,0.00,,,0.00,WUHU216HW,2013-07-11 11:47:00,
2013-07-11 07:52:00,65.6,61.9,29.92,NNW,338,0.0,0.0,88,0.00,,,0.00,WUHU216HW,2013-07-11 11:52:00,
2013-07-11 07:57:00,65.6,61.9,29.92,NNW,338,0.0,0.0,88,0.00,,,0.00,WUHU216HW,2013-07-11 11:57:00,
2013-07-11 08:02:00,65.8,62.1,29.92,WNW,293,0.0,0.0,88,0.00,,,0.00,WUHU216HW,2013-07-11 12:02:00,
2013-07-11 08:07:00,65.8,61.8,29.92,NW,315,0.0,0.0,87,0.00,,,0.00,WUHU216HW,2013-07-11 12:07:00,
2013-07-11 08:12:00,65.8,61.8,29.92,North,0,0.0,0.0,87,0.00,,,0.00,WUHU216HW,2013-07-11 12:12:00,
2013-07-11 08:17:00,66.0,61.9,29.92,NE,45,0.0,1.1,87,0.00,,,0.00,WUHU216HW,2013-07-11 12:17:00,
2013-07-11 08:22:00,66.0,61.9,29.92,ESE,113,4.2,8.0,87,0.00,,,0.00,WUHU216HW,2013-07-11 12:22:00,
2013-07-11 08:27:00,66.0,61.6,29.93,North,0,1.1,8.0,86,0.00,,,0.00,WUHU216HW,2013-07-11 12:27:00,
2013-07-11 08:32:00,66.0,61.6,29.92,NW,315,0.0,1.7,86,0.00,,,0.00,WUHU216HW,2013-07-11 12:32:00,
2013-07-11 08:37:00,66.3,62.0,29.93,North,0,6.4,6.4,86,0.00,,,0.00,WUHU216HW,2013-07-11 12:37:00,
2013-07-11 08:42:00,66.3,61.7,29.93,ESE,113,5.1,6.4,85,0.00,,,0.00,WUHU216HW,2013-07-11 12:42:00,
2013-07-11 08:47:00,66.7,62.0,29.93,North,0,0.8,6.4,85,0.00,,,0.00,WUHU216HW,2013-07-11 12:47:00,
2013-07-11 08:53:00,66.7,62.0,29.93,North,0,3.3,3.3,85,0.00,,,0.00,WUHU216HW,2013-07-11 12:53:00,
2013-07-11 08:58:00,66.9,61.9,29.93,NE,45,5.1,5.1,84,0.00,,,0.00,WUHU216HW,2013-07-11 12:58:00,
2013-07-11 09:03:00,66.9,61.9,29.93,NW,315,0.0,5.1,84,0.00,,,0.00,WUHU216HW,2013-07-11 13:03:00,
2013-07-11 09:08:00,67.2,62.6,29.93,NNW,338,3.3,5.1,85,0.00,,,0.00,WUHU216HW,2013-07-11 13:08:00,
2013-07-11 09:13:00,67.2,62.2,29.93,NNW,338,4.4,4.4,84,0.00,,,0.00,WUHU216HW,2013-07-11 13:13:00,
2013-07-11 09:18:00,67.6,62.3,29.94,NNE,23,0.8,4.4,83,0.00,,,0.00,WUHU216HW,2013-07-11 13:18:00,
2013-07-11 09:23:00,67.8,62.4,29.93,NNE,23,1.3,4.4,83,0.00,,,0.00,WUHU216HW,2013-07-11 13:23:00,
2013-07-11 09:28:00,67.8,62.4,29.93,North,0,6.9,6.9,83,0.00,,,0.00,WUHU216HW,2013-07-11 13:28:00,
2013-07-11 09:33:00,68.1,62.8,29.93,North,0,0.0,6.9,83,0.00,,,0.00,WUHU216HW,2013-07-11 13:33:00,
2013-07-11 09:38:00,68.3,62.3,29.93,East,90,0.0,9.3,81,0.00,,,0.00,WUHU216HW,2013-07-11 13:38:00,
2013-07-11 09:44:00,68.5,62.5,29.93,North,0,0.4,9.3,81,0.00,,,0.00,WUHU216HW,2013-07-11 13:44:00,
2013-07-11 09:49:00,68.5,62.5,29.94,WNW,293,4.6,4.6,81,0.00,,,0.00,WUHU216HW,2013-07-11 13:49:00,
2013-07-11 09:54:00,68.7,62.6,29.94,North,0,0.0,4.6,81,0.00,,,0.00,WUHU216HW,2013-07-11 13:54:00,
2013-07-11 09:59:00,69.0,62.6,29.94,ESE,113,2.2,8.0,80,0.00,,,0.00,WUHU216HW,2013-07-11 13:59:00,
2013-07-11 10:04:00,69.4,62.9,29.94,NNE,23,0.0,8.0,80,0.00,,,0.00,WUHU216HW,2013-07-11 14:04:00,
2013-07-11 10:09:00,69.4,62.9,29.94,NW,315,5.1,5.1,80,0.00,,,0.00,WUHU216HW,2013-07-11 14:09:00,
2013-07-11 10:14:00,69.6,62.7,29.94,North,0,0.0,5.1,79,0.00,,,0.00,WUHU216HW,2013-07-11 14:14:00,
2013-07-11 10:19:00,69.8,62.9,29.94,WNW,293,3.5,3.5,79,0.00,,,0.00,WUHU216HW,2013-07-11 14:19:00,
2013-07-11 10:24:00,70.1,62.9,29.94,North,0,11.4,11.4,78,0.00,,,0.00,WUHU216HW,2013-07-11 14:24:00,
2013-07-11 10:29:00,70.3,63.1,29.94,NW,315,0.0,11.4,78,0.00,,,0.00,WUHU216HW,2013-07-11 14:29:00,
2013-07-11 10:34:00,70.5,63.2,29.94,NNE,23,0.0,6.2,78,0.00,,,0.00,WUHU216HW,2013-07-11 14:34:00,
2013-07-11 10:39:00,70.7,63.4,29.94,NNE,23,5.1,6.2,78,0.00,,,0.00,WUHU216HW,2013-07-11 14:39:00,
2013-07-11 10:44:00,70.8,63.2,29.94,SE,135,4.6,6.9,77,0.00,,,0.00,WUHU216HW,2013-07-11 14:44:00,
2013-07-11 10:49:00,71.2,63.6,29.94,NNW,338,1.7,6.9,77,0.00,,,0.00,WUHU216HW,2013-07-11 14:49:00,
2013-07-11 10:54:00,71.2,63.2,29.93,NNE,23,9.6,9.6,76,0.00,,,0.00,WUHU216HW,2013-07-11 14:54:00,
2013-07-11 10:59:00,71.4,63.4,29.94,NNE,23,1.7,9.6,76,0.00,,,0.00,WUHU216HW,2013-07-11 14:59:00,
2013-07-11 11:04:00,71.6,63.6,29.94,ESE,113,3.1,3.1,76,0.00,,,0.00,WUHU216HW,2013-07-11 15:04:00,
2013-07-11 11:09:00,71.7,63.7,29.93,SE,135,4.6,5.5,76,0.00,,,0.00,WUHU216HW,2013-07-11 15:09:00,
2013-07-11 11:15:00,71.9,63.7,29.94,NE,45,1.3,5.5,75,0.00,,,0.00,WUHU216HW,2013-07-11 15:15:00,
2013-07-11 11:20:00,72.3,63.9,29.93,NNW,338,6.0,6.0,75,0.00,,,0.00,WUHU216HW,2013-07-11 15:20:00,
2013-07-11 11:25:00,72.5,63.7,29.93,North,0,3.8,6.0,74,0.00,,,0.00,WUHU216HW,2013-07-11 15:25:00,
2013-07-11 11:30:00,72.5,63.7,29.94,NNE,23,4.4,4.4,74,0.00,,,0.00,WUHU216HW,2013-07-11 15:30:00,
2013-07-11 11:35:00,72.8,64.1,29.94,NE,45,0.0,4.4,74,0.00,,,0.00,WUHU216HW,2013-07-11 15:35:00,
2013-07-11 11:40:00,73.0,64.2,29.94,NW,315,0.0,4.4,74,0.00,,,0.00,WUHU216HW,2013-07-11 15:40:00,
2013-07-11 11:45:00,73.2,64.0,29.94,SE,135,6.0,6.0,73,0.00,,,0.00,WUHU216HW,2013-07-11 15:45:00,
2013-07-11 11:50:00,73.4,63.8,29.94,ESE,113,1.1,6.0,72,0.00,,,0.00,WUHU216HW,2013-07-11 15:50:00,
2013-07-11 11:55:00,73.7,63.8,29.94,ENE,68,0.0,1.1,71,0.00,,,0.00,WUHU216HW,2013-07-11 15:55:00,
2013-07-11 12:00:00,73.9,64.0,29.94,NE,45,2.9,4.0,71,0.00,,,0.00,WUHU216HW,2013-07-11 16:00:00,
2013-07-11 12:06:00,73.9,64.0,29.94,ESE,113,4.0,4.0,71,0.00,,,0.00,WUHU216HW,2013-07-11 16:06:00,
2013-07-11 12:11:00,74.1,64.1,29.94,NNW,338,1.1,4.0,71,0.00,,,0.00,WUHU216HW,2013-07-11 16:11:00,
2013-07-11 12:16:00,74.4,64.1,29.95,NNE,23,4.4,4.4,70,0.00,,,0.00,WUHU216HW,2013-07-11 16:16:00,
2013-07-11 12:21:00,74.8,64.4,29.95,NNE,23,1.5,4.6,70,0.00,,,0.00,WUHU216HW,2013-07-11 16:21:00,
2013-07-11 12:26:00,75.0,64.1,29.95,East,90,4.0,5.3,69,0.00,,,0.00,WUHU216HW,2013-07-11 16:26:00,
2013-07-11 12:31:00,75.0,63.7,29.95,NNE,23,0.8,5.3,67,0.00,,,0.00,WUHU216HW,2013-07-11 16:31:00,
2013-07-11 12:36:00,75.3,63.6,29.95,South,180,0.0,8.0,67,0.00,,,0.00,WUHU216HW,2013-07-11 16:36:00,
2013-07-11 12:41:00,75.5,62.9,29.95,ESE,113,0.0,8.0,65,0.00,,,0.00,WUHU216HW,2013-07-11 16:41:00,
2013-07-11 12:47:00,75.7,63.1,29.95,NNE,23,0.0,6.0,65,0.00,,,0.00,WUHU216HW,2013-07-11 16:47:00,
2013-07-11 12:52:00,75.7,63.5,29.95,NNW,338,0.8,2.6,66,0.00,,,0.00,WUHU216HW,2013-07-11 16:52:00,
2013-07-11 12:57:00,76.2,64.0,29.95,SSE,158,0.0,3.5,66,0.00,,,0.00,WUHU216HW,2013-07-11 16:57:00,
2013-07-11 13:02:00,76.6,63.9,29.95,ENE,68,0.0,3.5,65,0.00,,,0.00,WUHU216HW,2013-07-11 17:02:00,
2013-07-11 13:07:00,76.8,64.1,29.95,NNW,338,5.1,5.1,65,0.00,,,0.00,WUHU216HW,2013-07-11 17:07:00,
2013-07-11 13:12:00,76.8,63.6,29.95,NNW,338,10.7,15.8,64,0.00,,,0.00,WUHU216HW,2013-07-11 17:12:00,
2013-07-11 13:17:00,76.6,63.0,29.95,North,0,8.5,15.8,63,0.00,,,0.00,WUHU216HW,2013-07-11 17:17:00,
2013-07-11 13:22:00,76.4,62.9,29.94,East,90,0.4,10.7,63,0.00,,,0.00,WUHU216HW,2013-07-11 17:22:00,
2013-07-11 13:27:00,76.8,63.2,29.94,NNW,338,3.5,3.5,63,0.00,,,0.00,WUHU216HW,2013-07-11 17:27:00,
2013-07-11 13:32:00,77.1,63.1,29.95,North,0,3.8,3.8,62,0.00,,,0.00,WUHU216HW,2013-07-11 17:32:00,
2013-07-11 13:37:00,77.5,63.9,29.94,North,0,2.6,3.8,63,0.00,,,0.00,WUHU216HW,2013-07-11 17:37:00,
2013-07-11 13:42:00,78.0,63.5,29.94,NNE,23,0.0,6.0,61,0.00,,,0.00,WUHU216HW,2013-07-11 17:42:00,
2013-07-11 13:47:00,78.4,63.9,29.94,NE,45,0.0,6.4,61,0.00,,,0.00,WUHU216HW,2013-07-11 17:47:00,
2013-07-11 13:52:00,78.6,63.6,29.94,West,270,0.0,6.4,60,0.00,,,0.00,WUHU216HW,2013-07-11 17:52:00,
2013-07-11 13:57:00,78.9,63.5,29.94,North,0,0.0,5.3,59,0.00,,,0.00,WUHU216HW,2013-07-11 17:57:00,
2013-07-11 14:02:00,78.9,63.5,29.94,NE,45,0.0,5.3,59,0.00,,,0.00,WUHU216HW,2013-07-11 18:02:00,
2013-07-11 14:07:00,79.1,63.1,29.93,NE,45,0.0,7.8,58,0.00,,,0.00,WUHU216HW,2013-07-11 18:07:00,
2013-07-11 14:12:00,79.5,62.9,29.93,NNW,338,5.8,7.8,57,0.00,,,0.00,WUHU216HW,2013-07-11 18:12:00,
2013-07-11 14:17:00,79.5,63.4,29.93,NNW,338,4.6,6.4,58,0.00,,,0.00,WUHU216HW,2013-07-11 18:17:00,
2013-07-11 14:22:00,80.0,63.4,29.93,ENE,68,0.0,6.4,57,0.00,,,0.00,WUHU216HW,2013-07-11 18:22:00,
2013-07-11 14:27:00,80.4,63.7,29.93,North,0,6.7,6.7,57,0.00,,,0.00,WUHU216HW,2013-07-11 18:27:00,
2013-07-11 14:32:00,80.4,63.2,29.93,SSW,203,0.0,6.7,56,0.00,,,0.00,WUHU216HW,2013-07-11 18:32:00,
2013-07-11 14:37:00,80.4,63.2,29.93,ENE,68,0.0,6.7,56,0.00,,,0.00,WUHU216HW,2013-07-11 18:37:00,
2013-07-11 14:42:00,80.4,63.2,29.94,NE,45,0.0,8.5,56,0.00,,,0.00,WUHU216HW,2013-07-11 18:42:00,
2013-07-11 14:47:00,80.4,63.2,29.93,NNW,338,0.0,8.5,56,0.00,,,0.00,WUHU216HW,2013-07-11 18:47:00,
2013-07-11 14:52:00,80.4,63.2,29.93,NNE,23,3.8,5.1,56,0.00,,,0.00,WUHU216HW,2013-07-11 18:52:00,
2013-07-11 14:58:00,80.4,63.2,29.93,NE,45,6.4,6.4,56,0.00,,,0.00,WUHU216HW,2013-07-11 18:58:00,
2013-07-11 15:03:00,80.2,63.0,29.93,NW,315,0.0,6.4,56,0.00,,,0.00,WUHU216HW,2013-07-11 19:03:00,
2013-07-11 15:08:00,80.2,62.5,29.93,NNW,338,0.0,6.0,55,0.00,,,0.00,WUHU216HW,2013-07-11 19:08:00,
2013-07-11 15:13:00,80.2,63.0,29.93,ENE,68,0.0,5.5,56,0.00,,,0.00,WUHU216HW,2013-07-11 19:13:00,
2013-07-11 15:19:00,80.2,62.5,29.93,NNE,23,0.0,5.5,55,0.00,,,0.00,WUHU216HW,2013-07-11 19:19:00,
2013-07-11 15:24:00,80.2,62.5,29.94,NW,315,3.3,5.8,55,0.00,,,0.00,WUHU216HW,2013-07-11 19:24:00,
2013-07-11 15:29:00,79.8,61.7,29.93,NE,45,4.9,7.3,54,0.00,,,0.00,WUHU216HW,2013-07-11 19:29:00,
2013-07-11 15:34:00,79.7,62.0,29.93,North,0,8.2,8.2,55,0.00,,,0.00,WUHU216HW,2013-07-11 19:34:00,
2013-07-11 15:39:00,79.7,62.0,29.93,NW,315,6.0,8.2,55,0.00,,,0.00,WUHU216HW,2013-07-11 19:39:00,
2013-07-11 15:44:00,79.5,61.8,29.94,NNE,23,7.6,9.3,55,0.00,,,0.00,WUHU216HW,2013-07-11 19:44:00,
2013-07-11 15:49:00,79.5,62.4,29.93,NNE,23,2.9,9.3,56,0.00,,,0.00,WUHU216HW,2013-07-11 19:49:00,
2013-07-11 15:54:00,79.3,62.2,29.93,NE,45,3.1,7.6,56,0.00,,,0.00,WUHU216HW,2013-07-11 19:54:00,
2013-07-11 15:59:00,79.1,62.0,29.93,NW,315,4.0,4.0,56,0.00,,,0.00,WUHU216HW,2013-07-11 19:59:00,
2013-07-11 16:04:00,79.1,62.0,29.93,North,0,0.0,5.8,56,0.00,,,0.00,WUHU216HW,2013-07-11 20:04:00,
2013-07-11 16:09:00,79.1,62.6,29.93,North,0,6.4,6.4,57,0.00,,,0.00,WUHU216HW,2013-07-11 20:09:00,
2013-07-11 16:14:00,78.9,62.4,29.93,North,0,7.3,9.1,57,0.00,,,0.00,WUHU216HW,2013-07-11 20:14:00,
2013-07-11 16:19:00,78.9,62.4,29.93,NNE,23,0.0,9.1,57,0.00,,,0.00,WUHU216HW,2013-07-11 20:19:00,
2013-07-11 16:24:00,78.8,61.7,29.93,NNW,338,0.0,7.3,56,0.00,,,0.00,WUHU216HW,2013-07-11 20:24:00,
2013-07-11 16:29:00,78.6,62.1,29.93,NW,315,9.3,9.3,57,0.00,,,0.00,WUHU216HW,2013-07-11 20:29:00,
2013-07-11 16:34:00,78.6,61.5,29.93,NNE,23,3.3,9.3,56,0.00,,,0.00,WUHU216HW,2013-07-11 20:34:00,
2013-07-11 16:39:00,78.6,62.1,29.93,NNW,338,4.0,13.1,57,0.00,,,0.00,WUHU216HW,2013-07-11 20:39:00,
2013-07-11 16:44:00,78.6,62.1,29.93,SSW,203,0.0,13.1,57,0.00,,,0.00,WUHU216HW,2013-07-11 20:44:00,
2013-07-11 16:49:00,78.8,62.2,29.93,ENE,68,2.9,6.0,57,0.00,,,0.00,WUHU216HW,2013-07-11 20:49:00,
2013-07-11 16:54:00,78.8,62.8,29.93,NNE,23,0.0,5.8,58,0.00,,,0.00,WUHU216HW,2013-07-11 20:54:00,
2013-07-11 16:59:00,78.6,62.1,29.92,NE,45,3.5,3.5,57,0.00,,,0.00,WUHU216HW,2013-07-11 20:59:00,
2013-07-11 17:04:00,78.6,62.1,29.92,NNW,338,9.3,9.3,57,0.00,,,0.00,WUHU216HW,2013-07-11 21:04:00,
2013-07-11 17:09:00,78.6,62.1,29.93,North,0,5.5,9.3,57,0.00,,,0.00,WUHU216HW,2013-07-11 21:09:00,
2013-07-11 17:14:00,78.4,61.9,29.93,NNW,338,3.1,5.5,57,0.00,,,0.00,WUHU216HW,2013-07-11 21:14:00,
2013-07-11 17:19:00,78.4,61.9,29.92,NNW,338,5.3,6.2,57,0.00,,,0.00,WUHU216HW,2013-07-11 21:19:00,
2013-07-11 17:25:00,78.4,61.9,29.92,NNE,23,6.4,6.4,57,0.00,,,0.00,WUHU216HW,2013-07-11 21:25:00,
2013-07-11 17:30:00,78.4,61.9,29.93,North,0,6.4,6.7,57,0.00,,,0.00,WUHU216HW,2013-07-11 21:30:00,
2013-07-11 17:35:00,78.4,62.1,29.92,North,0,10.7,10.7,57,0.00,,,0.00,WUHU216HW,2013-07-11 21:35:00,
2013-07-11 17:40:00,78.6,61.5,29.93,NNW,338,0.0,10.7,56,0.00,,,0.00,WUHU216HW,2013-07-11 21:40:00,
2013-07-11 17:45:00,78.4,61.4,29.92,NNW,338,0.0,8.9,56,0.00,,,0.00,WUHU216HW,2013-07-11 21:45:00,
2013-07-11 17:50:00,78.4,61.4,29.92,NW,315,5.8,5.8,57,0.00,,,0.00,WUHU216HW,2013-07-11 21:50:00,
2013-07-11 17:55:00,78.4,61.9,29.92,WSW,248,0.4,5.8,57,0.00,,,0.00,WUHU216HW,2013-07-11 21:55:00,
2013-07-11 18:00:00,78.4,61.9,29.92,North,0,0.0,5.8,57,0.00,,,0.00,WUHU216HW,2013-07-11 22:00:00,
2013-07-11 18:05:00,78.4,61.9,29.92,ENE,68,0.0,2.4,57,0.00,,,0.00,WUHU216HW,2013-07-11 22:05:00,
2013-07-11 18:10:00,78.0,61.0,29.92,WNW,293,5.8,5.8,56,0.00,,,0.00,WUHU216HW,2013-07-11 22:10:00,
2013-07-11 18:15:00,78.0,61.0,29.93,North,0,2.9,5.8,56,0.00,,,0.00,WUHU216HW,2013-07-11 22:15:00,
2013-07-11 18:20:00,78.0,61.2,29.93,NW,315,6.4,6.4,56,0.00,,,0.00,WUHU216HW,2013-07-11 22:20:00,
2013-07-11 18:25:00,78.2,61.2,29.93,NNW,338,0.0,6.4,56,0.00,,,0.00,WUHU216HW,2013-07-11 22:25:00,
2013-07-11 18:30:00,78.6,61.5,29.93,NW,315,6.7,6.7,56,0.00,,,0.00,WUHU216HW,2013-07-11 22:30:00,
2013-07-11 18:35:00,78.4,60.9,29.93,NNE,23,5.5,6.7,55,0.00,,,0.00,WUHU216HW,2013-07-11 22:35:00,
2013-07-11 18:40:00,78.6,61.0,29.93,NNE,23,5.5,5.5,55,0.00,,,0.00,WUHU216HW,2013-07-11 22:40:00,
2013-07-11 18:45:00,78.6,61.5,29.93,NNE,23,8.0,10.0,56,0.00,,,0.00,WUHU216HW,2013-07-11 22:45:00,
2013-07-11 18:50:00,78.6,61.0,29.93,NE,45,0.0,10.0,55,0.00,,,0.00,WUHU216HW,2013-07-11 22:50:00,
2013-07-11 18:55:00,78.4,61.4,29.93,NE,45,3.1,7.6,56,0.00,,,0.00,WUHU216HW,2013-07-11 22:55:00,
2013-07-11 19:00:00,78.4,61.4,29.93,North,0,2.4,4.9,56,0.00,,,0.00,WUHU216HW,2013-07-11 23:00:00,
2013-07-11 19:05:00,78.2,61.2,29.93,North,0,0.0,3.1,56,0.00,,,0.00,WUHU216HW,2013-07-11 23:05:00,
2013-07-11 19:10:00,78.2,61.2,29.93,NNW,338,0.0,2.0,56,0.00,,,0.00,WUHU216HW,2013-07-11 23:10:00,
2013-07-11 19:15:00,78.4,61.4,29.93,NNW,338,0.0,6.2,56,0.00,,,0.00,WUHU216HW,2013-07-11 23:15:00,
2013-07-11 19:20:00,78.4,61.4,29.92,NNE,23,0.0,6.2,56,0.00,,,0.00,WUHU216HW,2013-07-11 23:20:00,
2013-07-11 19:25:00,78.4,61.9,29.92,WNW,293,0.4,4.2,57,0.00,,,0.00,WUHU216HW,2013-07-11 23:25:00,
2013-07-11 19:30:00,78.0,61.0,29.92,NNW,338,0.0,2.0,56,0.00,,,0.00,WUHU216HW,2013-07-11 23:30:00,
2013-07-11 19:35:00,77.9,60.9,29.93,NE,45,0.0,2.0,56,0.00,,,0.00,WUHU216HW,2013-07-11 23:35:00,
2013-07-11 19:40:00,77.9,60.9,29.93,NE,45,0.0,0.0,56,0.00,,,0.00,WUHU216HW,2013-07-11 23:40:00,
2013-07-11 19:45:00,77.7,60.7,29.92,North,0,3.3,6.2,56,0.00,,,0.00,WUHU216HW,2013-07-11 23:45:00,
2013-07-11 19:51:00,77.7,60.7,29.92,NNE,23,0.0,6.2,56,0.00,,,0.00,WUHU216HW,2013-07-11 23:51:00,
2013-07-11 19:56:00,77.5,60.0,29.93,NE,45,0.0,4.4,55,0.00,,,0.00,WUHU216HW,2013-07-11 23:56:00,
2013-07-11 20:01:00,77.5,60.5,29.92,NNW,338,0.0,4.4,56,0.00,,,0.00,WUHU216HW,2013-07-12 00:01:00,
2013-07-11 20:06:00,77.1,60.2,29.92,North,0,0.0,0.0,56,0.00,,,0.00,WUHU216HW,2013-07-12 00:06:00,
2013-07-11 20:11:00,77.0,60.5,29.92,NE,45,0.0,0.0,57,0.00,,,0.00,WUHU216HW,2013-07-12 00:11:00,
2013-07-11 20:16:00,76.6,60.7,29.92,NNE,23,0.0,0.0,58,0.00,,,0.00,WUHU216HW,2013-07-12 00:16:00,
2013-07-11 20:21:00,76.4,61.0,29.92,NNE,23,0.0,0.0,59,0.00,,,0.00,WUHU216HW,2013-07-12 00:21:00,
2013-07-11 20:26:00,76.1,60.7,29.92,NNE,23,0.0,0.0,59,0.00,,,0.00,WUHU216HW,2013-07-12 00:26:00,
2013-07-11 20:31:00,75.7,60.9,29.92,NNE,23,0.0,0.0,60,0.00,,,0.00,WUHU216HW,2013-07-12 00:31:00,
2013-07-11 20:36:00,75.5,60.7,29.92,North,0,0.0,0.0,60,0.00,,,0.00,WUHU216HW,2013-07-12 00:36:00,
2013-07-11 20:41:00,75.0,60.6,29.92,North,0,0.0,0.0,61,0.00,,,0.00,WUHU216HW,2013-07-12 00:41:00,
2013-07-11 20:46:00,74.8,60.9,29.92,North,0,0.0,0.0,62,0.00,,,0.00,WUHU216HW,2013-07-12 00:46:00,
2013-07-11 20:51:00,74.4,60.5,29.92,North,0,0.0,0.0,62,0.00,,,0.00,WUHU216HW,2013-07-12 00:51:00,
2013-07-11 20:56:00,74.1,60.6,29.92,North,0,0.0,0.0,63,0.00,,,0.00,WUHU216HW,2013-07-12 00:56:00,
2013-07-11 21:01:00,73.7,60.3,29.92,North,0,0.0,0.0,63,0.00,,,0.00,WUHU216HW,2013-07-12 01:01:00,
2013-07-11 21:06:00,73.2,60.4,29.91,North,0,0.0,0.0,64,0.00,,,0.00,WUHU216HW,2013-07-12 01:06:00,
2013-07-11 21:12:00,73.0,60.5,29.92,North,0,0.0,0.0,65,0.00,,,0.00,WUHU216HW,2013-07-12 01:12:00,
2013-07-11 21:17:00,72.8,60.3,29.91,North,0,0.0,0.0,65,0.00,,,0.00,WUHU216HW,2013-07-12 01:17:00,
2013-07-11 21:22:00,72.6,60.9,29.91,North,0,0.0,0.0,66,0.00,,,0.00,WUHU216HW,2013-07-12 01:22:00,
2013-07-11 21:27:00,72.1,60.5,29.92,North,0,0.0,0.0,67,0.00,,,0.00,WUHU216HW,2013-07-12 01:27:00,
2013-07-11 21:32:00,71.9,60.8,29.91,North,0,0.0,0.0,68,0.00,,,0.00,WUHU216HW,2013-07-12 01:32:00,
2013-07-11 21:37:00,71.4,60.2,29.92,North,0,0.0,0.0,68,0.00,,,0.00,WUHU216HW,2013-07-12 01:37:00,
2013-07-11 21:42:00,71.2,60.5,29.92,North,0,0.0,0.0,69,0.00,,,0.00,WUHU216HW,2013-07-12 01:42:00,
2013-07-11 21:47:00,70.8,60.6,29.92,North,0,0.0,0.0,70,0.00,,,0.00,WUHU216HW,2013-07-12 01:47:00,
2013-07-11 21:52:00,70.3,60.4,29.92,North,0,0.0,0.0,71,0.00,,,0.00,WUHU216HW,2013-07-12 01:52:00,
2013-07-11 21:57:00,70.1,60.2,29.92,North,0,0.0,0.0,71,0.00,,,0.00,WUHU216HW,2013-07-12 01:57:00,
2013-07-11 22:02:00,69.9,60.4,29.93,North,0,0.0,0.0,72,0.00,,,0.00,WUHU216HW,2013-07-12 02:02:00,
2013-07-11 22:07:00,69.6,60.1,29.93,North,0,0.0,0.0,72,0.00,,,0.00,WUHU216HW,2013-07-12 02:07:00,
2013-07-11 22:12:00,69.4,60.3,29.93,North,0,0.0,0.0,73,0.00,,,0.00,WUHU216HW,2013-07-12 02:12:00,
2013-07-11 22:17:00,69.2,60.1,29.93,North,0,0.0,0.0,73,0.00,,,0.00,WUHU216HW,2013-07-12 02:17:00,
2013-07-11 22:22:00,68.9,60.2,29.93,North,0,0.0,0.0,74,0.00,,,0.00,WUHU216HW,2013-07-12 02:22:00,
2013-07-11 22:28:00,68.7,60.0,29.93,North,0,0.0,0.0,74,0.00,,,0.00,WUHU216HW,2013-07-12 02:28:00,
2013-07-11 22:33:00,68.5,59.9,29.93,North,0,0.0,0.0,74,0.00,,,0.00,WUHU216HW,2013-07-12 02:33:00,
2013-07-11 22:38:00,68.3,60.1,29.93,North,0,0.0,0.0,75,0.00,,,0.00,WUHU216HW,2013-07-12 02:38:00,
2013-07-11 22:43:00,68.1,59.9,29.93,North,0,0.0,0.0,75,0.00,,,0.00,WUHU216HW,2013-07-12 02:43:00,
2013-07-11 22:48:00,67.8,60.0,29.94,North,0,0.0,0.0,76,0.00,,,0.00,WUHU216HW,2013-07-12 02:48:00,
2013-07-11 22:53:00,67.6,59.8,29.94,North,0,0.0,0.0,76,0.00,,,0.00,WUHU216HW,2013-07-12 02:53:00,
2013-07-11 22:58:00,67.6,59.8,29.94,North,0,0.0,0.0,76,0.00,,,0.00,WUHU216HW,2013-07-12 02:58:00,
2013-07-11 23:03:00,67.2,59.4,29.94,North,0,0.0,0.0,76,0.00,,,0.00,WUHU216HW,2013-07-12 03:03:00,
2013-07-11 23:09:00,67.2,59.6,29.93,North,0,0.0,0.0,77,0.00,,,0.00,WUHU216HW,2013-07-12 03:09:00,
2013-07-11 23:14:00,66.9,59.4,29.94,North,0,0.0,0.0,77,0.00,,,0.00,WUHU216HW,2013-07-12 03:14:00,
2013-07-11 23:19:00,66.9,59.4,29.94,North,0,0.0,0.0,77,0.00,,,0.00,WUHU216HW,2013-07-12 03:19:00,
2013-07-11 23:24:00,66.7,59.3,29.94,North,0,0.0,0.0,77,0.00,,,0.00,WUHU216HW,2013-07-12 03:24:00,
2013-07-11 23:29:00,66.5,59.5,29.94,North,0,0.0,0.0,78,0.00,,,0.00,WUHU216HW,2013-07-12 03:29:00,
2013-07-11 23:34:00,66.2,59.1,29.94,North,0,0.0,0.0,78,0.00,,,0.00,WUHU216HW,2013-07-12 03:34:00,
2013-07-11 23:39:00,66.0,58.9,29.94,North,0,0.0,0.0,78,0.00,,,0.00,WUHU216HW,2013-07-12 03:39:00,
2013-07-11 23:44:00,65.8,58.7,29.94,North,0,0.0,0.0,78,0.00,,,0.00,WUHU216HW,2013-07-12 03:44:00,
2013-07-11 23:50:00,65.8,59.1,29.95,North,0,0.0,0.0,79,0.00,,,0.00,WUHU216HW,2013-07-12 03:50:00,
2013-07-11 23:55:00,65.4,58.8,29.95,North,0,0.0,0.0,79,0.00,,,0.00,WUHU216HW,2013-07-12 03:55:00,